Retour au catalogue

DELTA 1 DEB

ActifSSO
NORAD 14464·DEBRIS·🇺🇸 United States

Lancé Mar 5, 1978 depuis Vandenberg Space Force Base

Loading…

Prochains Passages (prochaines 24 heures)

TLE

FraisSource: Space-Track

Époque: Sep 12, 2026, 04:55 UTC

1 14464U 78026GE  26255.20554170 -.00000017  00000-0  21926-4 0  9999
2 14464  99.4018 123.1902 0059811 296.8851 192.3253 13.94503210232867

Suivez DELTA 1 DEB en temps réel avec AllMySat

Download on the App Store